This is the latest recevied weather packets stored in our database for station/object W8KVG. If no packets are shown the sender has not sent any weather packets the latest 10 day(s).
| Time | Temp. | Humidity | Pressure | Rain* | Wind** | Luminosity | Snow |
|---|---|---|---|---|---|---|---|
| 1778049684 | 13.89° C | 98% | 1005.7 hPa | 1.27 mm | - | 0 W/m² | - |
| 1778049383 | 13.89° C | 97% | 1005.9 hPa | 1.27 mm | - | 0 W/m² | - |
| 1778049079 | 14.44° C | 97% | 1006 hPa | 1.27 mm | - | 0 W/m² | - |
| 1778048778 | 14.44° C | 97% | 1006.1 hPa | 0.51 mm | - | 0 W/m² | - |
| 1778048475 | 14.44° C | 98% | 1006.1 hPa | 0.51 mm | - | 0 W/m² | - |
| 1778048170 | 13.89° C | 98% | 1006.3 hPa | 0.51 mm | - | 0 W/m² | - |
| 1778047869 | 13.89° C | 99% | 1006.2 hPa | 1.27 mm | - | 0 W/m² | - |
| 1778047567 | 13.89° C | 99% | 1006.4 hPa | 1.27 mm | - | 0 W/m² | - |
| 1778047263 | 13.89° C | 99% | 1006.5 hPa | 1.27 mm | - | 0 W/m² | - |
| 1778046961 | 13.89° C | 99% | 1006.6 hPa | 1.27 mm | - | 0 W/m² | - |
| 1778046657 | 13.89° C | 99% | 1006.9 hPa | 1.27 mm | - | 0 W/m² | - |
| 1778046354 | 14.44° C | 99% | 1006.8 hPa | 1.27 mm | - | 0 W/m² | - |
| 1778046050 | 14.44° C | 99% | 1006.9 hPa | 0.51 mm | - | 0 W/m² | - |
| 1778045748 | 14.44° C | 98% | 1007.1 hPa | 0.51 mm | - | 0 W/m² | - |
| 1778045446 | 14.44° C | 98% | 1007.1 hPa | 1.27 mm | - | 0 W/m² | - |
| 1778045144 | 14.44° C | 98% | 1007.3 hPa | 1.27 mm | - | 0 W/m² | - |
| 1778044842 | 14.44° C | 97% | 1007.3 hPa | 1.78 mm | - | 0 W/m² | - |
| 1778044538 | 14.44° C | 97% | 1007.4 hPa | 0.51 mm | - | 0 W/m² | - |
| 1778044235 | 14.44° C | 97% | 1007.3 hPa | 1.27 mm | - | 0 W/m² | - |
| 1778043933 | 14.44° C | 96% | 1007.4 hPa | 1.78 mm | - | 0 W/m² | - |
| 1778043630 | 14.44° C | 96% | 1007.5 hPa | 1.27 mm | - | 0 W/m² | - |
| 1778043327 | 15° C | 95% | 1007.6 hPa | 1.27 mm | - | 0 W/m² | - |
| 1778043024 | 15° C | 95% | 1007.5 hPa | 1.78 mm | - | 0 W/m² | - |
| 1778042722 | 15° C | 94% | 1007.7 hPa | 2.29 mm | - | 0 W/m² | - |
| 1778042418 | 15° C | 94% | 1007.9 hPa | 1.27 mm | - | 0 W/m² | - |
* Rain latest hour (hover to see other rain measurements)
** Current wind speed in m/s (hover to see current wind gust speed)